This demonstration page uses our WeatherBlox Daily Observations layout. Learn more.

Left ArrowRight Arrow

Hourly Observations for March 23, 2016

Temp ( °F °C ) Dew Point ( °F °C ) Humidity (%) Winds ( mph kmh ) Pressure ( in mb ) Visibility ( mi km ) Precip ( " mm )
12:54 am 00:54 Clear 57 13.9 40 4.4 53 53 ENE 17 28 29.47 998 10 16 0.00 0.00
1:54 am 01:54 Clear 56 13.3 41 5 57 57 E 14 22 29.44 997 10 16 0.00 0.00
2:54 am 02:54 Clear 55 12.8 41 5 59 59 E 7 11 29.42 996 10 16 0.00 0.00
3:54 am 03:54 Clear 55 12.8 43 6.1 64 64 ESE 9 15 29.40 996 10 16 0.00 0.00
4:54 am 04:54 Clear 56 13.3 44 6.7 65 65 E 12 19 29.39 995 10 16 0.00 0.00
5:54 am 05:54 Clear 56 13.3 45 7.2 67 67 E 12 19 29.39 995 10 16 0.00 0.00
6:54 am 06:54 Clear 51 10.6 44 6.7 77 77 NNW 12 19 29.41 996 10 16 0.00 0.00
7:54 am 07:54 Sunny 51 10.6 45 7.2 80 80 N 9 15 29.44 997 10 16 0.00 0.00
8:54 am 08:54 Cloudy 55 12.8 46 7.8 72 72 NE 14 22 29.44 997 10 16 0.00 0.00
9:54 am 09:54 Cloudy 57 13.9 46 7.8 67 67 NE 18 30 29.43 997 10 16 0.00 0.00
10:35 am 10:35 Cloudy 57 13.9 46 7.8 67 67 NE 23 37 29.44 997 10 16 0.00 0.00
10:54 am 10:54 Cloudy 56 13.3 45 7.2 67 67 NE 23 37 29.44 997 10 16 0.00 0.00
11:12 am 11:12 Cloudy 57 13.9 46 7.8 67 67 NE 22 35 29.44 997 10 16 0.00 0.00
11:54 am 11:54 Cloudy 57 13.9 45 7.2 64 64 NE 28 44 29.44 997 10 16 0.00 0.00
12:54 pm 12:54 Mostly Sunny 59 15 45 7.2 60 60 NE 25 41 29.44 997 10 16 0.00 0.00
1:54 pm 13:54 Sunny 60 15.6 45 7.2 58 58 ENE 29 46 29.42 996 8 13 0.00 0.00
2:54 pm 14:54 Sunny 57 13.9 43 6.1 60 60 NE 31 50 29.39 995 7 11 0.00 0.00
3:54 pm 15:54 Mostly Cloudy with Haze 49 9.4 40 4.4 71 71 NNE 26 43 29.42 996 6 10 0.00 0.00
4:11 pm 16:11 Cloudy with Light Rain 46 7.8 41 5 83 83 NNE 22 35 29.47 998 6 10 0.00 0.03
4:24 pm 16:24 Cloudy with Nearby Thunderstorms 46 7.8 40 4.4 79 79 NNE 29 46 29.47 998 6 10 0.00 0.03
4:42 pm 16:42 Cloudy with Haze 45 7 39 4 81 81 NE 30 48 29.47 998 5 8 0.00 0.00
4:54 pm 16:54 Cloudy with Haze 45 7.2 40 4.4 83 83 NNE 25 41 29.45 997 6 10 0.00 0.03
5:47 pm 17:47 Cloudy 43 6.1 39 3.9 86 86 NNE 25 41 29.53 1000 7 11 0.00 0.00
5:54 pm 17:54 Cloudy 43 6.1 39 3.9 86 86 NNE 22 35 29.50 999 7 11 0.00 0.00
6:54 pm 18:54 Cloudy 40 4.4 36 2.2 86 86 N 23 37 29.60 1002 10 16 0.00 0.00
7:31 pm 19:31 Cloudy 39 3.9 35 1.7 86 86 NNE 36 57 29.59 1002 10 16 0.00 0.00
7:54 pm 19:54 Cloudy 39 3.9 34 1.1 82 82 NNE 29 46 29.56 1001 10 16 0.00 0.00
8:45 pm 20:45 Cloudy 37 3 34 1 87 87 NNE 29 46 29.62 1003 10 16 0.00 0.00
8:54 pm 20:54 Cloudy 37 2.8 33 0.6 86 86 NNE 25 41 29.60 1003 10 16 0.00 0.00
9:39 pm 21:39 Cloudy 36 2 30 -1 81 81 NNE 22 35 29.68 1005 10 16 0.00 0.00
9:54 pm 21:54 Cloudy 36 2.2 31 -0.6 82 82 NNE 28 44 29.64 1004 10 16 0.00 0.00
10:54 pm 22:54 Cloudy 35 1.7 30 -1.1 82 82 NNE 30 48 29.62 1003 10 16 0.00 0.00
11:54 pm 23:54 Cloudy 35 1.7 30 -1.1 82 82 N 24 39 29.68 1005 10 16 0.00 0.00

Powered by AerisWeather